This is the latest recevied weather packets stored in our database for station/object HS5FXK-3. If no packets are shown the sender has not sent any weather packets the latest 10 day(s).
| Time | Temp. | Humidity | Pressure | Rain* | Wind** | Luminosity | Snow |
|---|---|---|---|---|---|---|---|
| 1777963925 | 35.56° C | 51% | 979 hPa | - | - | 0 W/m² | - |
| 1777963012 | 35.56° C | 52% | 979 hPa | - | - | 0 W/m² | - |
| 1777962102 | 35.56° C | 53% | 980 hPa | - | - | 0 W/m² | - |
| 1777961930 | 34.44° C | 55% | 980 hPa | - | - | 0 W/m² | - |
| 1777961172 | 33.89° C | 56% | 980 hPa | - | - | 0 W/m² | - |
| 1777960258 | 35° C | 56% | 981 hPa | - | - | 0 W/m² | - |
| 1777959364 | 35° C | 56% | 981 hPa | - | - | 0 W/m² | - |
| 1777958431 | 33.89° C | 58% | 981 hPa | - | - | 0 W/m² | - |
| 1777957518 | 33.89° C | 58% | 982 hPa | - | - | 0 W/m² | - |
| 1777956604 | 33.33° C | 59% | 982 hPa | - | - | 0 W/m² | - |
| 1777955691 | 33.33° C | 59% | 982 hPa | - | - | 0 W/m² | - |
| 1777954778 | 32.22° C | 64% | 982 hPa | - | - | 0 W/m² | - |
| 1777953864 | 31.11° C | 73% | 983 hPa | - | - | 0 W/m² | - |
| 1777952975 | 30.56° C | 74% | 983 hPa | - | - | 0 W/m² | - |
| 1777952807 | 30° C | 75% | 983 hPa | - | - | 0 W/m² | - |
| 1777952459 | 29.44° C | 81% | 983 hPa | - | - | 0 W/m² | - |
| 1777952170 | 29.44° C | 82% | 983 hPa | - | - | 0 W/m² | - |
| 1777951926 | 28.89° C | 83% | 983 hPa | - | - | 0 W/m² | - |
| 1777950999 | 28.33° C | 89% | 983 hPa | - | - | 0 W/m² | - |
| 1777950086 | 28.33° C | 92% | 983 hPa | - | - | 0 W/m² | - |
| 1777949177 | 28.33° C | 93% | 983 hPa | - | - | 0 W/m² | - |
| 1777948260 | 27.78° C | 94% | 983 hPa | - | - | 0 W/m² | - |
| 1777947276 | 27.22° C | 98% | 983 hPa | - | - | 0 W/m² | - |
| 1777946363 | 26.67° C | 99% | 983 hPa | - | - | 0 W/m² | - |
| 1777946066 | 27.22° C | 99% | 983 hPa | - | - | 0 W/m² | - |
* Rain since midnight (hover to see other rain measurements)
** Current wind speed in m/s (hover to see current wind gust speed)